Marshfield, WI

8:59 PM CDT on April 29, 2017 (GMT -0500)
Marshfield Municipal

Weather History for KMFI - March, 2013

Change the Weather History Date:

Friday, March 22, 2013

  Actual Average Record
Temperature  
Mean Temperature 18 °F -  
Max Temperature 32 °F 42 °F 72 °F (2012)
Min Temperature 6 °F 21 °F -4 °F (1940)
Degree Days  
Heating Degree Days 47    
Moisture  
Dew Point 8 °F    
Average Humidity 64    
Maximum Humidity 83    
Minimum Humidity 47    
Precipitation  
Precipitation 0.00 in - - ()
Sea Level Pressure  
Sea Level Pressure 30.08 in    
Wind  
Wind Speed 5 mph (NW)    
Max Wind Speed 10 mph    
Max Gust Speed -    
Visibility 10 miles    
Events      
Averages and records for this station are not official NWS values.
T = Trace of Precipitation, MM = Missing Value Source: NWS Daily Summary

Daily Weather History Graph

Daily Weather History Graph

Search for Another Location

Airport or City:

Trip Planner

Search our weather history database for the weather conditions in past years. The results will help you decide how hot, cold, wet, or windy it might be!

Date:

Astronomy

Mar. 22, 2013 Rise Set
Actual Time 6:59 AM CDT 7:16 PM CDT
Civil Twilight 6:30 AM CDT 7:45 PM CDT
Nautical Twilight 5:56 AM CDT 8:19 PM CDT
Astronomical Twilight 5:21 AM CDT 8:54 PM CDT
Moon 2:33 PM CDT (3/22) 4:10 AM CDT (3/22)
Length of Visible Light 13h 14m
Length of Day
12h 16m
Waxing Gibbous, 77% of the Moon is Illuminated
Mar 22
Waxing Gibbous
Mar 27
Full
Apr 2
Last Quarter
Apr 10
New
Apr 18
First Quarter

Hourly Weather History & Observations

Time (CDT) Temp. Windchill Dew Point Humidity Pressure Visibility Wind Dir Wind Speed Gust Speed Precip Events Conditions
12:54 AM 9.0 °F -2.2 °F 1.9 °F 73% 30.09 in 10.0 mi NW 6.9 mph - N/A   Clear
1:54 AM 9.0 °F -0.9 °F 1.9 °F 73% 30.09 in 10.0 mi NW 5.8 mph - N/A   Clear
2:54 AM 8.1 °F -3.2 °F 1.9 °F 76% 30.08 in 10.0 mi NW 6.9 mph - N/A   Clear
3:54 AM 7.0 °F -3.3 °F 1.0 °F 77% 30.08 in 6.0 mi NNW 5.8 mph - N/A   Haze
4:54 AM 7.0 °F 0.1 °F 1.9 °F 80% 30.08 in 10.0 mi NW 3.5 mph - N/A   Clear
5:54 AM 6.1 °F -2.8 °F 1.9 °F 83% 30.09 in 10.0 mi NNW 4.6 mph - N/A   Clear
6:54 AM 8.1 °F - 3.0 °F 80% 30.09 in 10.0 mi Calm Calm - N/A   Clear
7:54 AM 7.0 °F 0.1 °F 1.9 °F 80% 30.10 in 10.0 mi North 3.5 mph - N/A   Clear
8:54 AM 19.9 °F 12.1 °F 7.0 °F 57% 30.09 in 10.0 mi North 5.8 mph - N/A   Clear
9:54 AM 24.1 °F 17.0 °F 9.0 °F 53% 30.09 in 10.0 mi NE 5.8 mph - N/A   Clear
10:54 AM 24.1 °F 16.0 °F 12.0 °F 60% 30.09 in 10.0 mi ENE 6.9 mph - N/A   Clear
11:54 AM 26.1 °F 21.9 °F 12.9 °F 58% 30.08 in 10.0 mi East 3.5 mph - N/A   Clear
12:54 PM 28.0 °F 20.8 °F 12.0 °F 51% 30.08 in 10.0 mi NW 6.9 mph - N/A   Clear
1:54 PM 30.0 °F 21.1 °F 14.0 °F 51% 30.06 in 10.0 mi NW 10.4 mph - N/A   Clear
2:54 PM 30.9 °F 25.2 °F 14.0 °F 50% 30.05 in 10.0 mi NW 5.8 mph - N/A   Clear
3:54 PM 30.9 °F 25.2 °F 12.9 °F 47% 30.05 in 10.0 mi WNW 5.8 mph - N/A   Clear
4:54 PM 30.9 °F 24.3 °F 14.0 °F 50% 30.06 in 10.0 mi West 6.9 mph - N/A   Clear
5:54 PM 30.0 °F 25.2 °F 12.9 °F 49% 30.07 in 10.0 mi West 4.6 mph - N/A   Clear
6:54 PM 28.0 °F 22.8 °F 12.0 °F 51% 30.08 in 10.0 mi West 4.6 mph - N/A   Clear
7:54 PM 26.1 °F - 10.9 °F 53% 30.09 in 10.0 mi Calm Calm - N/A   Clear
8:54 PM 21.9 °F - 12.0 °F 66% 30.08 in 10.0 mi Calm Calm - N/A   Clear
9:54 PM 21.0 °F - 12.0 °F 68% 30.09 in 10.0 mi Calm Calm - N/A   Clear
10:54 PM 18.0 °F - 9.0 °F 68% 30.10 in 10.0 mi Calm Calm - N/A   Clear
11:54 PM 17.1 °F 11.7 °F 9.0 °F 71% 30.11 in 10.0 mi WNW 3.5 mph - N/A   Clear